Time,TemperatureF,DewpointF,PressureIn,WindDirection,WindDirectionDegrees,WindSpeedMPH,WindSpeedGustMPH,Humidity,HourlyPrecipIn,Conditions,Clouds,dailyrainin,SoftwareType,DateUTC
2013-03-20 00:00:00,43.2,40.1,27.99,SSE,149,0.0,0.0,89,0.12,,---,0.43,VWS V14.01,2013-03-20 07:00:00,
2013-03-20 00:05:00,43.3,40.3,27.99,SSE,149,0.0,0.0,89,0.16,,---,0.04,VWS V14.01,2013-03-20 07:05:00,
2013-03-20 00:10:00,43.5,40.5,27.99,ENE,60,0.0,0.0,89,0.16,,---,0.04,VWS V14.01,2013-03-20 07:10:00,
2013-03-20 00:15:00,43.7,40.7,27.99,ENE,67,4.0,4.0,89,0.16,,---,0.04,VWS V14.01,2013-03-20 07:15:00,
2013-03-20 00:20:00,43.7,40.7,27.99,ENE,67,4.0,4.0,89,0.08,,---,0.04,VWS V14.01,2013-03-20 07:20:00,
2013-03-20 00:25:00,43.9,41.1,27.99,South,180,0.0,0.0,90,0.12,,---,0.08,VWS V14.01,2013-03-20 07:25:00,
2013-03-20 00:30:00,44.1,41.3,27.99,South,180,0.0,0.0,90,0.12,,---,0.08,VWS V14.01,2013-03-20 07:30:00,
2013-03-20 00:35:00,44.1,41.3,27.99,ESE,108,5.8,5.8,90,0.12,,---,0.08,VWS V14.01,2013-03-20 07:35:00,
2013-03-20 00:40:00,44.1,41.3,27.99,SSE,160,0.0,0.0,90,0.12,,---,0.08,VWS V14.01,2013-03-20 07:40:00,
2013-03-20 00:45:00,44.1,41.3,27.99,SSE,160,0.0,0.0,90,0.16,,---,0.12,VWS V14.01,2013-03-20 07:45:00,
2013-03-20 00:50:00,44.1,41.3,27.99,SSW,197,3.1,3.1,90,0.16,,---,0.12,VWS V14.01,2013-03-20 07:50:00,
2013-03-20 00:55:00,44.1,41.3,27.99,SSW,197,0.0,0.0,90,0.12,,---,0.12,VWS V14.01,2013-03-20 07:55:00,
2013-03-20 01:00:00,43.9,41.1,27.99,SSW,197,0.0,0.0,90,0.12,,---,0.12,VWS V14.01,2013-03-20 08:00:00,
2013-03-20 01:05:00,44.1,41.6,27.99,SSW,197,0.0,0.0,91,0.16,,---,0.16,VWS V14.01,2013-03-20 08:05:00,
2013-03-20 01:10:00,43.9,41.4,27.99,SSW,197,0.0,0.0,91,0.16,,---,0.16,VWS V14.01,2013-03-20 08:10:00,
2013-03-20 01:15:00,43.7,41.0,27.96,ESE,103,0.0,0.0,90,0.12,,---,0.16,VWS V14.01,2013-03-20 08:15:00,
2013-03-20 01:20:00,43.7,41.0,27.96,ENE,69,3.1,3.1,90,0.12,,---,0.16,VWS V14.01,2013-03-20 08:20:00,
2013-03-20 01:25:00,43.7,40.7,27.96,ENE,69,3.1,3.1,89,0.12,,---,0.16,VWS V14.01,2013-03-20 08:25:00,
2013-03-20 01:30:00,43.5,40.5,27.96,SE,137,2.7,2.7,89,0.12,,---,0.16,VWS V14.01,2013-03-20 08:30:00,
2013-03-20 01:35:00,43.5,40.5,27.96,NE,47,3.6,3.6,89,0.08,,---,0.16,VWS V14.01,2013-03-20 08:35:00,
2013-03-20 01:40:00,43.5,40.5,27.96,NE,47,3.6,3.6,89,0.08,,---,0.16,VWS V14.01,2013-03-20 08:40:00,
2013-03-20 01:45:00,43.5,40.5,27.94,East,83,2.7,2.7,89,0.08,,---,0.16,VWS V14.01,2013-03-20 08:45:00,
2013-03-20 01:50:00,43.5,40.8,27.94,East,90,0.0,2.7,90,0.08,,---,0.16,VWS V14.01,2013-03-20 08:50:00,
2013-03-20 01:55:00,43.5,40.8,27.94,ESE,121,0.0,0.0,90,0.04,,---,0.16,VWS V14.01,2013-03-20 08:55:00,
2013-03-20 02:00:00,43.7,41.0,27.94,ESE,121,0.0,0.0,90,0.08,,---,0.20,VWS V14.01,2013-03-20 09:00:00,
2013-03-20 02:05:00,43.7,41.0,27.94,ESE,120,0.0,0.0,90,0.08,,---,0.20,VWS V14.01,2013-03-20 09:05:00,
2013-03-20 02:10:00,43.7,41.0,27.94,ENE,65,3.6,3.6,90,0.08,,---,0.20,VWS V14.01,2013-03-20 09:10:00,
2013-03-20 02:15:00,43.9,41.4,27.94,ENE,65,3.6,3.6,91,0.04,,---,0.20,VWS V14.01,2013-03-20 09:15:00,
2013-03-20 02:20:00,44.1,41.6,27.94,ENE,58,0.0,0.0,91,0.04,,---,0.20,VWS V14.01,2013-03-20 09:20:00,
2013-03-20 02:25:00,43.9,41.4,27.94,East,88,3.1,3.1,91,0.04,,---,0.20,VWS V14.01,2013-03-20 09:25:00,
2013-03-20 02:30:00,43.9,41.1,27.94,East,88,3.1,3.1,90,0.04,,---,0.20,VWS V14.01,2013-03-20 09:30:00,
2013-03-20 02:35:00,44.1,41.6,27.94,ENE,67,0.0,0.0,91,0.04,,---,0.20,VWS V14.01,2013-03-20 09:35:00,
2013-03-20 02:40:00,44.2,41.8,27.94,ENE,67,0.0,0.0,91,0.04,,---,0.20,VWS V14.01,2013-03-20 09:40:00,
2013-03-20 02:45:00,44.1,41.6,27.94,East,86,0.0,0.0,91,0.04,,---,0.20,VWS V14.01,2013-03-20 09:45:00,
2013-03-20 02:50:00,44.2,41.8,27.91,East,87,0.0,0.0,91,0.04,,---,0.20,VWS V14.01,2013-03-20 09:50:00,
2013-03-20 02:55:00,44.2,41.5,27.91,East,87,0.0,0.0,90,0.04,,---,0.20,VWS V14.01,2013-03-20 09:55:00,
2013-03-20 03:00:00,44.2,41.5,27.91,East,88,0.0,0.0,90,0.04,,---,0.20,VWS V14.01,2013-03-20 10:00:00,
2013-03-20 03:05:00,44.1,41.3,27.91,East,88,0.0,0.0,90,0.00,,---,0.20,VWS V14.01,2013-03-20 10:05:00,
2013-03-20 03:10:00,44.1,41.3,27.91,East,88,0.0,0.0,90,0.00,,---,0.20,VWS V14.01,2013-03-20 10:10:00,
2013-03-20 03:15:00,43.9,41.4,27.91,East,85,0.0,0.0,91,0.00,,---,0.20,VWS V14.01,2013-03-20 10:15:00,
2013-03-20 03:20:00,43.7,41.2,27.91,East,85,0.0,0.0,91,0.00,,---,0.20,VWS V14.01,2013-03-20 10:20:00,
2013-03-20 03:25:00,44.1,42.2,27.91,East,85,0.0,0.0,93,0.00,,---,0.20,VWS V14.01,2013-03-20 10:25:00,
2013-03-20 03:30:00,44.2,42.3,27.91,East,84,0.0,0.0,93,0.00,,---,0.20,VWS V14.01,2013-03-20 10:30:00,
2013-03-20 03:35:00,44.2,42.3,27.91,East,84,0.0,0.0,93,0.00,,---,0.20,VWS V14.01,2013-03-20 10:35:00,
2013-03-20 03:40:00,44.1,41.9,27.91,ENE,62,4.0,4.0,92,0.00,,---,0.20,VWS V14.01,2013-03-20 10:40:00,
2013-03-20 03:45:00,43.9,41.7,27.91,East,100,0.0,0.0,92,0.00,,---,0.20,VWS V14.01,2013-03-20 10:45:00,
2013-03-20 03:50:00,43.9,41.7,27.91,East,100,0.0,0.0,92,0.00,,---,0.20,VWS V14.01,2013-03-20 10:50:00,
2013-03-20 03:55:00,43.9,41.7,27.91,East,100,0.0,0.0,92,0.00,,---,0.20,VWS V14.01,2013-03-20 10:55:00,
2013-03-20 04:00:00,44.1,41.9,27.88,NE,55,0.0,0.0,92,0.00,,---,0.20,VWS V14.01,2013-03-20 11:00:00,
2013-03-20 04:05:00,44.1,41.9,27.88,East,80,0.0,0.0,92,0.00,,---,0.20,VWS V14.01,2013-03-20 11:05:00,
2013-03-20 04:10:00,44.1,41.9,27.88,East,80,0.0,0.0,92,0.00,,---,0.20,VWS V14.01,2013-03-20 11:10:00,
2013-03-20 04:15:00,43.9,41.7,27.88,East,80,0.0,0.0,92,0.00,,---,0.20,VWS V14.01,2013-03-20 11:15:00,
2013-03-20 04:20:00,44.1,41.9,27.88,East,80,0.0,0.0,92,0.00,,---,0.20,VWS V14.01,2013-03-20 11:20:00,
2013-03-20 04:25:00,44.1,41.9,27.88,East,80,0.0,0.0,92,0.00,,---,0.20,VWS V14.01,2013-03-20 11:25:00,
2013-03-20 04:30:00,43.9,42.0,27.88,ESE,116,3.1,3.1,93,0.00,,---,0.20,VWS V14.01,2013-03-20 11:30:00,
2013-03-20 04:35:00,44.1,42.2,27.88,ESE,108,0.0,0.0,93,0.00,,---,0.20,VWS V14.01,2013-03-20 11:35:00,
2013-03-20 04:40:00,44.1,42.2,27.88,ESE,108,0.0,0.0,93,0.00,,---,0.20,VWS V14.01,2013-03-20 11:40:00,
2013-03-20 04:45:00,44.2,42.3,27.85,ESE,108,0.0,0.0,93,0.00,,---,0.20,VWS V14.01,2013-03-20 11:45:00,
2013-03-20 04:50:00,44.2,42.3,27.85,ESE,108,0.0,0.0,93,0.00,,---,0.20,VWS V14.01,2013-03-20 11:50:00,
2013-03-20 04:55:00,45.1,43.2,27.85,ESE,108,0.0,0.0,93,0.00,,---,0.20,VWS V14.01,2013-03-20 11:55:00,
2013-03-20 05:00:00,45.3,43.4,27.85,ESE,108,0.0,0.0,93,0.00,,---,0.20,VWS V14.01,2013-03-20 12:00:00,
2013-03-20 05:05:00,45.5,43.6,27.85,ESE,108,0.0,0.0,93,0.00,,---,0.20,VWS V14.01,2013-03-20 12:05:00,
2013-03-20 05:10:00,45.5,43.6,27.85,ESE,108,0.0,0.0,93,0.00,,---,0.20,VWS V14.01,2013-03-20 12:10:00,
2013-03-20 05:15:00,45.5,43.6,27.85,ESE,108,0.0,0.0,93,0.04,,---,0.24,VWS V14.01,2013-03-20 12:15:00,
2013-03-20 05:20:00,45.3,43.4,27.85,ESE,108,0.0,0.0,93,0.04,,---,0.24,VWS V14.01,2013-03-20 12:20:00,
2013-03-20 05:25:00,45.5,43.6,27.85,ESE,108,0.0,0.0,93,0.04,,---,0.24,VWS V14.01,2013-03-20 12:25:00,
2013-03-20 05:30:00,45.3,43.4,27.85,SE,124,0.0,0.0,93,0.04,,---,0.24,VWS V14.01,2013-03-20 12:30:00,
2013-03-20 05:35:00,45.3,43.4,27.85,SE,124,0.0,0.0,93,0.04,,---,0.24,VWS V14.01,2013-03-20 12:35:00,
2013-03-20 05:40:00,45.3,43.4,27.85,SE,129,0.0,0.0,93,0.04,,---,0.24,VWS V14.01,2013-03-20 12:40:00,
2013-03-20 05:45:00,45.5,43.6,27.85,SE,129,0.0,0.0,93,0.04,,---,0.24,VWS V14.01,2013-03-20 12:45:00,
2013-03-20 05:50:00,45.5,43.6,27.85,SE,130,0.0,0.0,93,0.04,,---,0.24,VWS V14.01,2013-03-20 12:50:00,
2013-03-20 05:55:00,45.7,43.8,27.85,SE,130,0.0,0.0,93,0.08,,---,0.28,VWS V14.01,2013-03-20 12:55:00,
2013-03-20 06:00:00,45.9,44.0,27.85,SE,143,0.0,3.1,93,0.08,,---,0.28,VWS V14.01,2013-03-20 13:00:00,
2013-03-20 06:05:00,45.9,44.0,27.85,SE,134,7.6,7.6,93,0.08,,---,0.28,VWS V14.01,2013-03-20 13:05:00,
2013-03-20 06:10:00,46.0,44.4,27.85,SE,142,0.0,0.0,94,0.08,,---,0.28,VWS V14.01,2013-03-20 13:10:00,
2013-03-20 06:15:00,46.0,44.4,27.85,SE,139,0.0,0.0,94,0.08,,---,0.28,VWS V14.01,2013-03-20 13:15:00,
2013-03-20 06:20:00,46.2,44.6,27.82,SSE,166,3.6,5.4,94,0.08,,---,0.28,VWS V14.01,2013-03-20 13:20:00,
2013-03-20 06:25:00,46.4,44.8,27.82,ESE,123,2.7,3.6,94,0.04,,---,0.28,VWS V14.01,2013-03-20 13:25:00,
2013-03-20 06:30:00,46.6,45.0,27.82,SSE,155,3.6,3.6,94,0.04,,---,0.28,VWS V14.01,2013-03-20 13:30:00,
2013-03-20 06:35:00,46.6,45.0,27.82,SE,127,0.0,7.2,94,0.04,,---,0.28,VWS V14.01,2013-03-20 13:35:00,
2013-03-20 06:40:00,46.9,45.3,27.82,SSE,164,5.4,5.4,94,0.04,,---,0.28,VWS V14.01,2013-03-20 13:40:00,
2013-03-20 06:45:00,46.9,45.3,27.82,SSW,205,8.3,8.7,94,0.04,,---,0.28,VWS V14.01,2013-03-20 13:45:00,
2013-03-20 06:50:00,46.9,45.3,27.82,ESE,103,5.4,5.4,94,0.04,,---,0.28,VWS V14.01,2013-03-20 13:50:00,
2013-03-20 06:55:00,46.9,45.3,27.82,SSE,154,0.0,0.0,94,0.04,,---,0.28,VWS V14.01,2013-03-20 13:55:00,
2013-03-20 07:00:00,47.1,45.5,27.82,SE,137,4.0,4.0,94,0.04,,---,0.28,VWS V14.01,2013-03-20 14:00:00,
2013-03-20 07:05:00,47.1,45.5,27.82,South,185,5.4,5.4,94,0.00,,---,0.28,VWS V14.01,2013-03-20 14:05:00,
2013-03-20 07:10:00,47.1,45.5,27.82,SSE,164,5.4,7.2,94,0.04,,---,0.31,VWS V14.01,2013-03-20 14:10:00,
2013-03-20 07:15:00,47.3,45.7,27.82,SSE,164,5.8,5.8,94,0.04,,---,0.31,VWS V14.01,2013-03-20 14:15:00,
2013-03-20 07:20:00,47.3,45.7,27.82,South,190,0.0,0.0,94,0.04,,---,0.31,VWS V14.01,2013-03-20 14:20:00,
2013-03-20 07:25:00,47.5,45.8,27.82,South,177,2.7,2.7,94,0.08,,---,0.35,VWS V14.01,2013-03-20 14:25:00,
2013-03-20 07:30:00,47.3,45.7,27.82,South,176,0.0,0.0,94,0.08,,---,0.35,VWS V14.01,2013-03-20 14:30:00,
2013-03-20 07:35:00,47.3,45.7,27.82,South,175,3.1,3.6,94,0.08,,---,0.35,VWS V14.01,2013-03-20 14:35:00,
2013-03-20 07:40:00,47.3,45.7,27.82,South,174,0.0,0.0,94,0.08,,---,0.35,VWS V14.01,2013-03-20 14:40:00,
2013-03-20 07:45:00,47.3,45.7,27.85,ESE,119,0.0,0.0,94,0.12,,---,0.39,VWS V14.01,2013-03-20 14:45:00,
2013-03-20 07:50:00,47.5,45.8,27.85,SE,142,5.4,5.4,94,0.12,,---,0.39,VWS V14.01,2013-03-20 14:50:00,
2013-03-20 07:55:00,47.5,45.8,27.85,SSE,161,3.1,3.1,94,0.12,,---,0.39,VWS V14.01,2013-03-20 14:55:00,
2013-03-20 08:00:00,47.5,45.8,27.82,SE,139,8.1,8.1,94,0.12,,---,0.39,VWS V14.01,2013-03-20 15:00:00,
2013-03-20 08:05:00,47.8,46.2,27.82,SSE,158,3.6,5.4,94,0.12,,---,0.39,VWS V14.01,2013-03-20 15:05:00,
2013-03-20 08:10:00,48.0,46.4,27.82,SE,144,4.0,4.0,94,0.16,,---,0.43,VWS V14.01,2013-03-20 15:10:00,
2013-03-20 08:15:00,47.8,46.2,27.82,ESE,123,2.7,3.1,94,0.12,,---,0.43,VWS V14.01,2013-03-20 15:15:00,
2013-03-20 08:20:00,47.8,46.2,27.82,SSE,165,2.7,2.7,94,0.12,,---,0.43,VWS V14.01,2013-03-20 15:20:00,
2013-03-20 08:25:00,47.8,46.2,27.82,South,181,5.4,5.4,94,0.12,,---,0.43,VWS V14.01,2013-03-20 15:25:00,
2013-03-20 08:30:00,47.8,46.2,27.82,SSE,150,2.7,3.6,94,0.12,,---,0.43,VWS V14.01,2013-03-20 15:30:00,
2013-03-20 08:35:00,47.8,46.2,27.82,SSE,149,2.7,2.7,94,0.08,,---,0.43,VWS V14.01,2013-03-20 15:35:00,
2013-03-20 08:40:00,48.0,46.4,27.82,SSE,157,0.0,4.0,94,0.08,,---,0.43,VWS V14.01,2013-03-20 15:40:00,
2013-03-20 08:45:00,47.8,46.2,27.82,ESE,119,4.0,4.0,94,0.08,,---,0.43,VWS V14.01,2013-03-20 15:45:00,
2013-03-20 08:50:00,47.8,46.2,27.82,SSE,164,3.6,3.6,94,0.08,,---,0.43,VWS V14.01,2013-03-20 15:50:00,
2013-03-20 08:55:00,48.0,46.4,27.82,SSE,162,2.7,2.7,94,0.04,,---,0.43,VWS V14.01,2013-03-20 15:55:00,
2013-03-20 09:00:00,48.0,46.4,27.85,South,172,5.8,5.8,94,0.04,,---,0.00,VWS V14.01,2013-03-20 16:00:00,
2013-03-20 09:05:00,47.8,46.2,27.85,SE,135,6.3,6.3,94,0.16,,---,0.55,VWS V14.01,2013-03-20 16:05:00,
2013-03-20 09:10:00,47.8,46.2,27.85,South,175,4.0,5.4,94,0.16,,---,0.55,VWS V14.01,2013-03-20 16:10:00,
2013-03-20 09:15:00,47.8,46.2,27.85,SSE,167,4.9,5.4,94,0.16,,---,0.59,VWS V14.01,2013-03-20 16:15:00,
2013-03-20 09:20:00,47.7,46.0,27.85,South,181,7.6,7.6,94,0.16,,---,0.59,VWS V14.01,2013-03-20 16:20:00,
2013-03-20 09:25:00,47.5,45.8,27.85,SE,145,4.0,4.0,94,0.20,,---,0.63,VWS V14.01,2013-03-20 16:25:00,
2013-03-20 09:30:00,47.5,45.8,27.88,SE,145,4.0,5.4,94,0.20,,---,0.63,VWS V14.01,2013-03-20 16:30:00,
2013-03-20 09:35:00,47.3,45.4,27.88,SSE,166,2.7,6.3,93,0.20,,---,0.63,VWS V14.01,2013-03-20 16:35:00,
2013-03-20 09:40:00,47.1,44.9,27.88,SE,142,5.4,5.4,92,0.20,,---,0.63,VWS V14.01,2013-03-20 16:40:00,
2013-03-20 09:45:00,46.9,44.5,27.88,SSE,167,0.0,3.6,91,0.20,,---,0.63,VWS V14.01,2013-03-20 16:45:00,
2013-03-20 09:50:00,46.9,44.5,27.88,South,190,4.9,4.9,91,0.20,,---,0.63,VWS V14.01,2013-03-20 16:50:00,
2013-03-20 09:55:00,46.9,44.5,27.88,South,178,0.0,0.0,91,0.20,,---,0.63,VWS V14.01,2013-03-20 16:55:00,
2013-03-20 10:00:00,46.9,44.5,27.88,South,169,0.0,0.0,91,0.20,,---,0.63,VWS V14.01,2013-03-20 17:00:00,
2013-03-20 10:05:00,47.3,44.8,27.88,South,183,5.8,5.8,91,0.20,,---,0.63,VWS V14.01,2013-03-20 17:05:00,
2013-03-20 10:10:00,47.3,44.8,27.91,NE,55,4.0,4.0,91,0.20,,---,0.63,VWS V14.01,2013-03-20 17:10:00,
2013-03-20 10:15:00,47.3,44.8,27.91,SSW,206,3.6,3.6,91,0.08,,---,0.63,VWS V14.01,2013-03-20 17:15:00,
2013-03-20 10:20:00,48.0,44.0,27.94,WSW,246,2.7,3.1,86,0.08,,---,0.63,VWS V14.01,2013-03-20 17:20:00,
2013-03-20 10:25:00,48.6,44.6,27.94,SE,138,3.1,3.1,86,0.04,,---,0.63,VWS V14.01,2013-03-20 17:25:00,
2013-03-20 10:30:00,48.7,44.8,27.94,SSE,154,5.8,5.8,86,0.04,,---,0.63,VWS V14.01,2013-03-20 17:30:00,
2013-03-20 10:35:00,49.5,45.2,27.94,ESE,110,4.0,4.0,85,0.04,,---,0.67,VWS V14.01,2013-03-20 17:35:00,
2013-03-20 10:40:00,49.5,45.2,27.94,SSE,159,3.6,5.8,85,0.04,,---,0.67,VWS V14.01,2013-03-20 17:40:00,
2013-03-20 10:45:00,49.5,45.2,27.96,SE,139,7.6,7.6,85,0.04,,---,0.67,VWS V14.01,2013-03-20 17:45:00,
2013-03-20 10:50:00,50.7,44.8,27.96,SSE,159,8.7,11.0,80,0.04,,---,0.67,VWS V14.01,2013-03-20 17:50:00,
2013-03-20 10:55:00,49.5,41.9,27.96,SE,142,10.1,10.1,75,0.04,,---,0.67,VWS V14.01,2013-03-20 17:55:00,
2013-03-20 11:00:00,48.6,41.7,27.96,SE,143,2.7,2.7,77,0.04,,---,0.67,VWS V14.01,2013-03-20 18:00:00,
2013-03-20 11:05:00,48.6,41.7,27.96,SE,138,3.6,3.6,77,0.04,,---,0.67,VWS V14.01,2013-03-20 18:05:00,
2013-03-20 11:10:00,48.6,41.7,27.96,SSE,152,3.1,3.1,77,0.04,,---,0.67,VWS V14.01,2013-03-20 18:10:00,
2013-03-20 11:15:00,49.8,44.5,27.96,SSW,192,10.1,10.1,82,0.04,,---,0.67,VWS V14.01,2013-03-20 18:15:00,
2013-03-20 11:19:00,49.6,43.7,27.96,ESE,105,4.0,4.0,80,0.04,,---,0.67,VWS V14.01,2013-03-20 18:19:00,
2013-03-20 11:24:00,49.6,43.7,27.96,ENE,78,5.8,5.8,80,0.04,,---,0.67,VWS V14.01,2013-03-20 18:24:00,
2013-03-20 11:29:00,48.9,41.7,27.96,SSE,157,6.3,6.3,76,0.04,,---,0.67,VWS V14.01,2013-03-20 18:29:00,
2013-03-20 11:34:00,48.6,41.0,27.99,SE,140,4.0,4.0,75,0.04,,---,0.67,VWS V14.01,2013-03-20 18:34:00,
2013-03-20 11:39:00,48.0,40.5,27.99,SE,127,10.5,10.5,75,0.04,,---,0.67,VWS V14.01,2013-03-20 18:39:00,
2013-03-20 11:44:00,48.0,40.5,27.99,SE,127,10.5,10.5,75,0.00,,---,0.67,VWS V14.01,2013-03-20 18:44:00,
2013-03-20 11:49:00,48.0,40.5,27.99,ESE,109,3.1,3.1,75,0.00,,---,0.67,VWS V14.01,2013-03-20 18:49:00,
2013-03-20 11:54:00,48.0,40.5,27.99,SSE,157,4.0,4.0,75,0.00,,---,0.67,VWS V14.01,2013-03-20 18:54:00,
2013-03-20 11:59:00,47.7,40.5,27.99,SSE,150,8.3,8.3,76,0.00,,---,0.67,VWS V14.01,2013-03-20 18:59:00,
2013-03-20 12:04:00,47.8,40.3,27.99,SSE,149,7.6,7.6,75,0.00,,---,0.67,VWS V14.01,2013-03-20 19:04:00,
2013-03-20 12:09:00,47.8,40.3,27.99,SSE,168,0.0,0.0,75,0.00,,---,0.67,VWS V14.01,2013-03-20 19:09:00,
2013-03-20 12:14:00,48.4,40.1,28.02,SSE,156,5.4,6.3,73,0.00,,---,0.67,VWS V14.01,2013-03-20 19:14:00,
2013-03-20 12:19:00,48.4,40.1,28.02,South,169,7.6,7.6,73,0.00,,---,0.67,VWS V14.01,2013-03-20 19:19:00,
2013-03-20 12:24:00,49.1,40.5,28.02,SSW,211,5.8,5.8,72,0.00,,---,0.67,VWS V14.01,2013-03-20 19:24:00,
2013-03-20 12:29:00,48.6,38.9,28.02,SE,138,4.0,4.0,69,0.00,,---,0.67,VWS V14.01,2013-03-20 19:29:00,
2013-03-20 12:34:00,48.0,38.3,28.02,SSE,161,0.0,2.2,69,0.00,,---,0.67,VWS V14.01,2013-03-20 19:34:00,
2013-03-20 12:39:00,48.0,38.3,28.02,ESE,111,0.0,0.0,69,0.00,,---,0.67,VWS V14.01,2013-03-20 19:39:00,
2013-03-20 12:44:00,46.6,38.0,28.02,South,183,7.2,7.2,72,0.00,,---,0.67,VWS V14.01,2013-03-20 19:44:00,
2013-03-20 12:49:00,45.3,37.5,28.02,SE,130,7.6,7.6,74,0.00,,---,0.67,VWS V14.01,2013-03-20 19:49:00,
2013-03-20 12:55:00,44.8,37.0,28.02,SE,134,2.2,2.2,74,0.08,,---,0.75,VWS V14.01,2013-03-20 19:55:00,
2013-03-20 13:00:00,44.8,37.0,28.02,SSE,167,2.2,2.2,74,0.08,,---,0.75,VWS V14.01,2013-03-20 20:00:00,
2013-03-20 13:05:00,44.1,37.3,28.05,ENE,77,2.7,3.1,77,0.08,,---,0.75,VWS V14.01,2013-03-20 20:05:00,
2013-03-20 13:10:00,44.1,37.3,28.05,SE,129,2.7,2.7,77,0.08,,---,0.75,VWS V14.01,2013-03-20 20:10:00,
2013-03-20 13:14:00,43.7,37.3,28.05,South,190,4.0,4.0,78,0.08,,---,0.75,VWS V14.01,2013-03-20 20:14:00,
2013-03-20 13:19:00,44.2,38.5,28.05,SSE,150,2.7,4.0,80,0.08,,---,0.75,VWS V14.01,2013-03-20 20:19:00,
2013-03-20 13:24:00,44.2,38.5,28.05,South,187,0.0,0.0,80,0.08,,---,0.75,VWS V14.01,2013-03-20 20:24:00,
2013-03-20 13:29:00,44.2,38.5,28.05,SE,137,3.1,3.6,80,0.08,,---,0.75,VWS V14.01,2013-03-20 20:29:00,
2013-03-20 13:34:00,45.5,39.4,28.05,SE,142,3.6,5.4,79,0.08,,---,0.75,VWS V14.01,2013-03-20 20:34:00,
2013-03-20 13:39:00,45.9,39.1,28.05,SSW,198,0.0,0.0,77,0.08,,---,0.75,VWS V14.01,2013-03-20 20:39:00,
2013-03-20 13:44:00,45.9,39.1,28.05,SE,137,0.0,0.0,77,0.12,,---,0.79,VWS V14.01,2013-03-20 20:44:00,
2013-03-20 13:49:00,45.9,39.1,28.08,SSE,158,3.6,3.6,77,0.12,,---,0.79,VWS V14.01,2013-03-20 20:49:00,
2013-03-20 13:54:00,43.9,36.8,28.08,SW,235,3.1,3.1,76,0.12,,---,0.79,VWS V14.01,2013-03-20 20:54:00,
2013-03-20 13:59:00,43.9,37.2,28.08,SSE,163,6.3,8.1,77,0.12,,---,0.79,VWS V14.01,2013-03-20 20:59:00,
2013-03-20 14:04:00,43.9,37.2,28.08,South,179,2.7,2.7,77,0.04,,---,0.79,VWS V14.01,2013-03-20 21:04:00,
2013-03-20 14:09:00,44.6,37.8,28.08,SE,137,0.0,6.3,77,0.04,,---,0.79,VWS V14.01,2013-03-20 21:09:00,
2013-03-20 14:14:00,45.3,39.2,28.08,SSE,152,4.0,4.0,79,0.04,,---,0.79,VWS V14.01,2013-03-20 21:14:00,
2013-03-20 14:19:00,45.7,38.9,28.08,SSE,148,5.4,5.4,77,0.04,,---,0.79,VWS V14.01,2013-03-20 21:19:00,
2013-03-20 14:24:00,46.8,39.9,28.08,SSE,161,0.0,6.7,77,0.04,,---,0.79,VWS V14.01,2013-03-20 21:24:00,
2013-03-20 14:30:00,48.2,41.3,28.08,SE,134,3.6,3.6,77,0.04,,---,0.79,VWS V14.01,2013-03-20 21:30:00,
2013-03-20 14:34:00,48.2,41.3,28.08,SSW,205,5.8,11.0,77,0.04,,---,0.79,VWS V14.01,2013-03-20 21:34:00,
2013-03-20 14:39:00,47.3,38.7,28.08,ESE,115,10.5,10.5,72,0.04,,---,0.79,VWS V14.01,2013-03-20 21:39:00,
2013-03-20 14:44:00,47.3,38.7,28.08,ESE,117,5.8,5.8,72,0.04,,---,0.79,VWS V14.01,2013-03-20 21:44:00,
2013-03-20 14:49:00,46.8,38.6,28.08,South,170,5.4,5.4,73,0.04,,---,0.79,VWS V14.01,2013-03-20 21:49:00,
2013-03-20 14:54:00,45.9,37.4,28.08,SSE,166,0.0,0.0,72,0.00,,---,0.79,VWS V14.01,2013-03-20 21:54:00,
2013-03-20 14:59:00,45.7,37.9,28.08,SE,146,3.6,3.6,74,0.00,,---,0.79,VWS V14.01,2013-03-20 21:59:00,
2013-03-20 15:04:00,45.7,37.9,28.08,ESE,116,0.0,0.0,74,0.00,,---,0.79,VWS V14.01,2013-03-20 22:04:00,
2013-03-20 15:09:00,45.7,37.9,28.08,East,92,3.1,3.1,74,0.00,,---,0.79,VWS V14.01,2013-03-20 22:09:00,
2013-03-20 15:14:00,45.7,37.9,28.11,SSW,192,2.2,2.7,74,0.00,,---,0.79,VWS V14.01,2013-03-20 22:14:00,
2013-03-20 15:19:00,44.6,37.2,28.11,West,280,8.1,8.1,75,0.00,,---,0.79,VWS V14.01,2013-03-20 22:19:00,
2013-03-20 15:24:00,44.6,37.2,28.11,SW,214,5.4,5.4,75,0.00,,---,0.79,VWS V14.01,2013-03-20 22:24:00,
2013-03-20 15:29:00,42.4,35.4,28.11,SSE,166,3.6,3.6,76,0.04,,---,0.83,VWS V14.01,2013-03-20 22:29:00,
2013-03-20 15:34:00,42.3,35.6,28.11,WSW,247,0.0,0.0,77,0.04,,---,0.83,VWS V14.01,2013-03-20 22:34:00,
2013-03-20 15:39:00,42.4,35.8,28.11,WSW,247,0.0,0.0,77,0.04,,---,0.83,VWS V14.01,2013-03-20 22:39:00,
2013-03-20 15:44:00,42.4,35.8,28.11,WNW,282,4.0,5.4,77,0.04,,---,0.83,VWS V14.01,2013-03-20 22:44:00,
2013-03-20 15:49:00,42.1,34.7,28.11,WNW,282,2.7,2.7,75,0.04,,---,0.83,VWS V14.01,2013-03-20 22:49:00,
2013-03-20 15:54:00,42.1,35.4,28.11,South,184,3.1,5.4,77,0.04,,---,0.83,VWS V14.01,2013-03-20 22:54:00,
2013-03-20 15:59:00,42.1,35.7,28.11,SSE,156,0.0,0.0,78,0.04,,---,0.83,VWS V14.01,2013-03-20 22:59:00,
2013-03-20 16:04:00,42.1,35.7,28.11,SSE,162,8.1,8.1,78,0.04,,---,0.83,VWS V14.01,2013-03-20 23:04:00,
2013-03-20 16:09:00,42.8,35.4,28.14,NW,311,0.0,0.0,75,0.04,,---,0.83,VWS V14.01,2013-03-20 23:09:00,
2013-03-20 16:14:00,42.8,34.8,28.14,NW,311,0.0,0.0,73,0.04,,---,0.83,VWS V14.01,2013-03-20 23:14:00,
2013-03-20 16:19:00,43.0,35.3,28.14,South,174,0.0,3.1,74,0.04,,---,0.83,VWS V14.01,2013-03-20 23:19:00,
2013-03-20 16:24:00,43.5,36.8,28.14,East,99,0.0,2.2,77,0.04,,---,0.83,VWS V14.01,2013-03-20 23:24:00,
2013-03-20 16:29:00,43.5,36.8,28.14,SSE,158,5.4,8.1,77,0.04,,---,0.83,VWS V14.01,2013-03-20 23:29:00,
2013-03-20 16:34:00,43.5,36.8,28.14,WSW,257,3.1,3.1,77,0.04,,---,0.87,VWS V14.01,2013-03-20 23:34:00,
2013-03-20 16:39:00,42.8,35.4,28.14,SSW,199,2.7,2.7,75,0.04,,---,0.87,VWS V14.01,2013-03-20 23:39:00,
2013-03-20 16:44:00,42.8,35.4,28.14,SW,227,0.0,0.0,75,0.04,,---,0.87,VWS V14.01,2013-03-20 23:44:00,
2013-03-20 16:49:00,42.8,35.1,28.14,WSW,257,0.0,0.0,74,0.04,,---,0.87,VWS V14.01,2013-03-20 23:49:00,
2013-03-20 16:54:00,42.8,35.4,28.14,West,272,2.7,2.7,75,0.04,,---,0.87,VWS V14.01,2013-03-20 23:54:00,
2013-03-20 16:59:00,42.8,35.4,28.17,SSW,192,0.0,0.0,75,0.04,,---,0.87,VWS V14.01,2013-03-20 23:59:00,
2013-03-20 17:04:00,43.3,36.3,28.17,North,3,5.4,5.4,76,0.04,,---,0.87,VWS V14.01,2013-03-21 00:04:00,
2013-03-20 17:09:00,42.8,34.8,28.17,SE,134,0.0,5.4,73,0.04,,---,0.87,VWS V14.01,2013-03-21 00:09:00,
2013-03-20 17:14:00,42.1,34.7,28.17,SW,236,5.8,10.5,75,0.04,,---,0.87,VWS V14.01,2013-03-21 00:14:00,
2013-03-20 17:19:00,42.1,34.7,28.17,NW,326,5.4,5.4,75,0.04,,---,0.87,VWS V14.01,2013-03-21 00:19:00,
2013-03-20 17:24:00,41.7,34.7,28.17,SSW,198,4.9,8.1,76,0.04,,---,0.87,VWS V14.01,2013-03-21 00:24:00,
2013-03-20 17:29:00,41.9,34.6,28.17,SSW,200,0.0,3.6,75,0.04,,---,0.87,VWS V14.01,2013-03-21 00:29:00,
2013-03-20 17:34:00,41.9,34.6,28.17,South,179,13.2,13.2,75,0.04,,---,0.87,VWS V14.01,2013-03-21 00:34:00,
2013-03-20 17:39:00,41.7,34.1,28.17,South,172,9.2,9.2,74,0.04,,---,0.87,VWS V14.01,2013-03-21 00:39:00,
2013-03-20 17:44:00,41.7,34.1,28.17,ESE,114,0.0,0.0,74,0.00,,---,0.87,VWS V14.01,2013-03-21 00:44:00,
2013-03-20 17:49:00,41.7,34.4,28.17,SE,137,5.8,5.8,75,0.00,,---,0.87,VWS V14.01,2013-03-21 00:49:00,
2013-03-20 17:54:00,41.7,34.4,28.17,South,176,0.0,3.1,75,0.00,,---,0.87,VWS V14.01,2013-03-21 00:54:00,
2013-03-20 17:59:00,41.9,34.2,28.17,WNW,284,5.4,5.4,74,0.00,,---,0.87,VWS V14.01,2013-03-21 00:59:00,
2013-03-20 18:04:00,41.5,32.8,28.17,SSW,205,11.4,11.4,71,0.00,,---,0.87,VWS V14.01,2013-03-21 01:04:00,
2013-03-20 18:09:00,41.4,33.0,28.17,South,186,0.0,0.0,72,0.00,,---,0.87,VWS V14.01,2013-03-21 01:09:00,
2013-03-20 18:14:00,41.5,34.2,28.20,ESE,103,0.0,0.0,75,0.00,,---,0.87,VWS V14.01,2013-03-21 01:14:00,
2013-03-20 18:19:00,41.2,33.5,28.20,NNW,347,3.1,3.1,74,0.00,,---,0.87,VWS V14.01,2013-03-21 01:19:00,
2013-03-20 18:24:00,41.2,33.5,28.20,WSW,247,0.0,0.0,74,0.00,,---,0.87,VWS V14.01,2013-03-21 01:24:00,
2013-03-20 18:29:00,41.2,33.5,28.20,NNW,338,5.8,5.8,74,0.00,,---,0.87,VWS V14.01,2013-03-21 01:29:00,
2013-03-20 18:34:00,39.9,33.3,28.20,WNW,284,4.0,4.0,77,0.00,,---,0.87,VWS V14.01,2013-03-21 01:34:00,
2013-03-20 18:39:00,39.6,32.6,28.20,North,358,6.3,6.3,76,0.00,,---,0.87,VWS V14.01,2013-03-21 01:39:00,
2013-03-20 18:44:00,39.6,32.6,28.20,NNW,339,3.1,3.1,76,0.00,,---,0.87,VWS V14.01,2013-03-21 01:44:00,
2013-03-20 18:49:00,38.8,33.5,28.20,NNW,339,0.0,0.0,81,0.00,,---,0.87,VWS V14.01,2013-03-21 01:49:00,
2013-03-20 18:54:00,39.2,34.2,28.20,NNW,339,0.0,0.0,82,0.00,,---,0.87,VWS V14.01,2013-03-21 01:54:00,
2013-03-20 18:59:00,39.2,34.2,28.20,NNW,339,0.0,0.0,82,0.00,,---,0.87,VWS V14.01,2013-03-21 01:59:00,
2013-03-20 19:04:00,39.6,34.5,28.23,NNW,339,0.0,0.0,82,0.00,,---,0.87,VWS V14.01,2013-03-21 02:04:00,
2013-03-20 19:09:00,39.2,33.9,28.23,West,276,3.6,3.6,81,0.00,,---,0.87,VWS V14.01,2013-03-21 02:09:00,
2013-03-20 19:14:00,39.2,33.9,28.23,SSW,193,6.3,6.3,81,0.00,,---,0.87,VWS V14.01,2013-03-21 02:14:00,
2013-03-20 19:19:00,39.2,33.9,28.23,WNW,283,7.6,7.6,81,0.00,,---,0.87,VWS V14.01,2013-03-21 02:19:00,
2013-03-20 19:24:00,38.7,32.1,28.23,SSW,207,7.2,7.2,77,0.00,,---,0.87,VWS V14.01,2013-03-21 02:24:00,
2013-03-20 19:29:00,38.5,31.6,28.23,West,274,2.7,2.7,76,0.00,,---,0.87,VWS V14.01,2013-03-21 02:29:00,
2013-03-20 19:34:00,38.5,31.3,28.23,WSW,255,4.0,4.0,75,0.04,,---,0.91,VWS V14.01,2013-03-21 02:34:00,
2013-03-20 19:39:00,37.9,29.7,28.23,SSW,194,0.0,0.0,72,0.04,,---,0.91,VWS V14.01,2013-03-21 02:39:00,
2013-03-20 19:44:00,37.8,29.9,28.23,WSW,248,4.9,4.9,73,0.04,,---,0.91,VWS V14.01,2013-03-21 02:44:00,
2013-03-20 19:49:00,37.8,29.9,28.23,West,265,0.0,0.0,73,0.04,,---,0.91,VWS V14.01,2013-03-21 02:49:00,
2013-03-20 19:54:00,37.9,30.7,28.23,SSE,165,2.2,2.2,75,0.04,,---,0.91,VWS V14.01,2013-03-21 02:54:00,
2013-03-20 19:59:00,37.9,30.7,28.23,WSW,241,4.0,4.0,75,0.04,,---,0.91,VWS V14.01,2013-03-21 02:59:00,
2013-03-20 20:04:00,37.4,30.2,28.29,West,278,0.0,0.0,75,0.04,,---,0.91,VWS V14.01,2013-03-21 03:04:00,
2013-03-20 20:09:00,36.1,30.0,28.29,North,9,2.7,4.0,78,0.04,,---,0.91,VWS V14.01,2013-03-21 03:09:00,
2013-03-20 20:14:00,36.1,30.3,28.29,NNW,335,4.0,4.0,79,0.04,,---,0.91,VWS V14.01,2013-03-21 03:14:00,
2013-03-20 20:19:00,36.1,30.3,28.29,NNW,335,2.7,2.7,79,0.04,,---,0.91,VWS V14.01,2013-03-21 03:19:00,
2013-03-20 20:24:00,36.1,30.3,28.29,NNW,335,3.6,3.6,79,0.04,,---,0.91,VWS V14.01,2013-03-21 03:24:00,
2013-03-20 20:29:00,36.1,30.3,28.32,NNW,334,2.7,2.7,79,0.04,,---,0.91,VWS V14.01,2013-03-21 03:29:00,
2013-03-20 20:34:00,36.3,31.4,28.32,NNW,334,0.0,0.0,82,0.04,,---,0.91,VWS V14.01,2013-03-21 03:34:00,
2013-03-20 20:39:00,36.3,31.7,28.32,NNW,334,0.0,0.0,83,0.04,,---,0.91,VWS V14.01,2013-03-21 03:39:00,
2013-03-20 20:44:00,36.3,31.7,28.32,WSW,241,0.0,0.0,83,0.00,,---,0.91,VWS V14.01,2013-03-21 03:44:00,
2013-03-20 20:49:00,36.0,31.3,28.32,WSW,241,0.0,0.0,83,0.00,,---,0.91,VWS V14.01,2013-03-21 03:49:00,
2013-03-20 20:54:00,36.0,31.3,28.32,WSW,239,0.0,0.0,83,0.00,,---,0.91,VWS V14.01,2013-03-21 03:54:00,
2013-03-20 20:59:00,36.0,31.6,28.32,WSW,240,0.0,0.0,84,0.00,,---,0.91,VWS V14.01,2013-03-21 03:59:00,
2013-03-20 21:00:00,36.0,31.6,28.32,WSW,240,0.0,0.0,84,0.00,,---,0.91,VWS V14.01,2013-03-21 04:00:00,
2013-03-20 21:05:00,35.8,31.4,28.32,WSW,240,0.0,0.0,84,0.00,,---,0.91,VWS V14.01,2013-03-21 04:05:00,
2013-03-20 21:10:00,35.8,31.4,28.32,WSW,240,0.0,0.0,84,0.00,,---,0.91,VWS V14.01,2013-03-21 04:10:00,
2013-03-20 21:15:00,36.0,31.9,28.32,WSW,240,0.0,0.0,85,0.00,,---,0.91,VWS V14.01,2013-03-21 04:15:00,
2013-03-20 21:20:00,36.1,32.1,28.35,WSW,240,0.0,0.0,85,0.00,,---,0.91,VWS V14.01,2013-03-21 04:20:00,
2013-03-20 21:25:00,36.1,32.1,28.35,WSW,240,0.0,0.0,85,0.00,,---,0.91,VWS V14.01,2013-03-21 04:25:00,
2013-03-20 21:30:00,36.1,32.1,28.35,WSW,240,0.0,0.0,85,0.00,,---,0.91,VWS V14.01,2013-03-21 04:30:00,
2013-03-20 21:35:00,36.1,32.1,28.35,WSW,240,0.0,0.0,85,0.00,,---,0.91,VWS V14.01,2013-03-21 04:35:00,
2013-03-20 21:40:00,36.1,32.1,28.35,West,279,0.0,0.0,85,0.00,,---,0.91,VWS V14.01,2013-03-21 04:40:00,
2013-03-20 21:45:00,35.8,31.4,28.35,West,278,0.0,0.0,84,0.00,,---,0.91,VWS V14.01,2013-03-21 04:45:00,
2013-03-20 21:50:00,36.1,31.8,28.35,West,276,0.0,0.0,84,0.00,,---,0.91,VWS V14.01,2013-03-21 04:50:00,
2013-03-20 21:55:00,36.0,31.6,28.35,SSE,158,0.0,0.0,84,0.00,,---,0.91,VWS V14.01,2013-03-21 04:55:00,
2013-03-20 22:00:00,36.0,31.3,28.35,SSE,159,0.0,0.0,83,0.00,,---,0.91,VWS V14.01,2013-03-21 05:00:00,
2013-03-20 22:05:00,36.0,31.3,28.35,SSE,159,0.0,0.0,83,0.00,,---,0.91,VWS V14.01,2013-03-21 05:05:00,
2013-03-20 22:10:00,36.0,31.3,28.35,SSE,161,2.7,2.7,83,0.00,,---,0.91,VWS V14.01,2013-03-21 05:10:00,
2013-03-20 22:15:00,35.8,31.1,28.35,SSE,160,3.6,3.6,83,0.00,,---,0.91,VWS V14.01,2013-03-21 05:15:00,
2013-03-20 22:20:00,35.6,31.0,28.35,SSE,160,0.0,0.0,83,0.00,,---,0.91,VWS V14.01,2013-03-21 05:20:00,
2013-03-20 22:25:00,35.6,31.0,28.38,SSE,162,2.7,2.7,83,0.00,,---,0.91,VWS V14.01,2013-03-21 05:25:00,
2013-03-20 22:30:00,35.6,31.0,28.38,SSE,163,0.0,0.0,83,0.00,,---,0.91,VWS V14.01,2013-03-21 05:30:00,
2013-03-20 22:35:00,35.4,30.8,28.38,SSE,163,0.0,0.0,83,0.00,,---,0.91,VWS V14.01,2013-03-21 05:35:00,
2013-03-20 22:40:00,35.4,30.8,28.38,SSE,163,0.0,0.0,83,0.00,,---,0.91,VWS V14.01,2013-03-21 05:40:00,
2013-03-20 22:45:00,35.4,30.8,28.38,SSE,163,0.0,0.0,83,0.00,,---,0.91,VWS V14.01,2013-03-21 05:45:00,
2013-03-20 22:50:00,35.4,30.8,28.38,SSE,163,0.0,0.0,83,0.00,,---,0.91,VWS V14.01,2013-03-21 05:50:00,
2013-03-20 22:55:00,35.4,30.8,28.38,ESE,123,0.0,0.0,83,0.00,,---,0.91,VWS V14.01,2013-03-21 05:55:00,
2013-03-20 23:00:00,35.2,30.6,28.38,SW,228,0.0,0.0,83,0.00,,---,0.91,VWS V14.01,2013-03-21 06:00:00,
2013-03-20 23:05:00,35.2,30.6,28.38,SW,228,0.0,0.0,83,0.00,,---,0.91,VWS V14.01,2013-03-21 06:05:00,
2013-03-20 23:10:00,35.2,30.6,28.38,SW,228,0.0,0.0,83,0.00,,---,0.91,VWS V14.01,2013-03-21 06:10:00,
2013-03-20 23:15:00,35.6,31.2,28.41,SW,227,0.0,0.0,84,0.00,,---,0.91,VWS V14.01,2013-03-21 06:15:00,
2013-03-20 23:20:00,35.4,31.1,28.41,South,175,2.2,2.2,84,0.00,,---,0.91,VWS V14.01,2013-03-21 06:20:00,
2013-03-20 23:25:00,35.2,30.9,28.41,SSW,202,0.0,0.0,84,0.00,,---,0.91,VWS V14.01,2013-03-21 06:25:00,
2013-03-20 23:30:00,35.1,30.7,28.41,SSW,202,0.0,0.0,84,0.00,,---,0.91,VWS V14.01,2013-03-21 06:30:00,
2013-03-20 23:35:00,35.1,30.7,28.41,SSW,202,0.0,0.0,84,0.00,,---,0.91,VWS V14.01,2013-03-21 06:35:00,
2013-03-20 23:40:00,35.2,31.2,28.41,SSW,202,0.0,0.0,85,0.00,,---,0.91,VWS V14.01,2013-03-21 06:40:00,
2013-03-20 23:45:00,35.2,31.2,28.41,SSW,202,0.0,0.0,85,0.00,,---,0.91,VWS V14.01,2013-03-21 06:45:00,
2013-03-20 23:50:00,35.2,31.2,28.41,SSW,202,0.0,0.0,85,0.00,,---,0.91,VWS V14.01,2013-03-21 06:50:00,
2013-03-20 23:55:00,35.2,31.2,28.41,SSW,202,0.0,0.0,85,0.00,,---,0.91,VWS V14.01,2013-03-21 06:55:00,